Regional Weather Roundup
Issued by NWS

Home | Current Version | Previous Version | Text Only | Print | Product List | Glossary Off
Versions: 1 2 3 4 5 6 7 8 9 10 11 12 13 14 15 16 17 18 19 20 21 22 23 24 25 26 27 28 29 30 31 32 33 34 35 36 37 38 39 40 41 42 43 44 45 46 47 48 49 50

000
ASUS43 KMKX 240611
RWRWI

WISCONSIN REGIONAL WEATHER ROUNDUP
NATIONAL WEATHER SERVICE MILWAUKEE/SULLIVAN WI
1200 AM CST FRI NOV 24 2017

NOTE: "FAIR" INDICATES FEW OR NO CLOUDS BELOW 12,000 FEET WITH NO
SIGNIFICANT WEATHER AND/OR OBSTRUCTIONS TO VISIBILITY.

WIZ001-002-006>008-014>016-023>028-240700-
NORTHWEST WISCONSIN

CITY           SKY/WX    TMP DP  RH WIND       PRES   REMARKS
SUPERIOR ARPT  CLOUDY    40  29  64 SW13      29.47F WCI  33
6HR MIN TEMP:  34; 6HR MAX TEMP:  40;

ASHLAND        CLOUDY    42  27  55 S15       29.49F
6HR MIN TEMP:  35; 6HR MAX TEMP:  42;

HAYWARD        CLOUDY    42  28  57 S12       29.54F
6HR MIN TEMP:  37; 6HR MAX TEMP:  42;

SIREN          CLOUDY    44  31  60 S10       29.53F
6HR MIN TEMP:  38; 6HR MAX TEMP:  44;

CUMBERLAND     CLOUDY    36  28  75 S7        29.57F WCI  30
RICE LAKE      CLOUDY    38  28  66 SE8       29.59F WCI  33
6HR MIN TEMP:  34; 6HR MAX TEMP:  39;

CHETEK         CLOUDY    40  29  64 SE7       29.60F
6HR MIN TEMP:  35; 6HR MAX TEMP:  40;

LADYSMITH      CLOUDY    38  26  62 S9        29.62F WCI  32
6HR MIN TEMP:  35; 6HR MAX TEMP:  38;

EAU CLAIRE     CLOUDY    37  27  67 S6        29.62F WCI  32
6HR MIN TEMP:  32; 6HR MAX TEMP:  37;

MENOMONIE      CLOUDY    43  29  59 S9        29.62F
6HR MIN TEMP:  33; 6HR MAX TEMP:  43;

NEW RICHMOND   CLOUDY    42  30  61 S10       29.57F
6HR MIN TEMP:  36; 6HR MAX TEMP:  42;

OSCEOLA        PTCLDY    43  31  63 S10G16    29.59F
6HR MIN TEMP:  35; 6HR MAX TEMP:  43;

$$

WIZ003>005-009-010-017-018-240700-
NORTH CENTRAL WISCONSIN

CITY           SKY/WX    TMP DP  RH WIND       PRES   REMARKS
MANITOWISH WTR CLOUDY    34  25  70 S9        29.56F WCI  26
6HR MIN TEMP:  33; 6HR MAX TEMP:  34;

ARBOR VITAE    CLOUDY    37  27  67 S10       29.59F WCI  29
6HR MIN TEMP:  32; 6HR MAX TEMP:  37;

WOODRUFF       CLOUDY    37  27  67 S10       29.59F WCI  29
6HR MIN TEMP:  32; 6HR MAX TEMP:  37;

RHINELANDER    CLOUDY    36  24  62 SW13      29.62F WCI  27
6HR MIN TEMP:  32; 6HR MAX TEMP:  36; 6HR PCP: TRACE;

EAGLE RIVER    CLOUDY    35  23  59 SW8       29.60F WCI  29
6HR MIN TEMP:  27; 6HR MAX TEMP:  35;

LAND O LAKES   CLOUDY    35  24  63 S6        29.60F WCI  30
6HR MIN TEMP:  28; 6HR MAX TEMP:  36;

PHILLIPS       CLOUDY    36  25  65 S9        29.59F WCI  29
6HR MIN TEMP:  34; 6HR MAX TEMP:  36;

TOMAHAWK       CLOUDY    34  23  65 S3        29.64F
6HR MIN TEMP:  30; 6HR MAX TEMP:  35;

MEDFORD        CLOUDY    36  25  65 S7        29.65F WCI  30
6HR MIN TEMP:  30; 6HR MAX TEMP:  36;

MERRILL        CLOUDY    37  25  62 SW6       29.68S WCI  32
6HR MIN TEMP:  29; 6HR MAX TEMP:  37;

$$

WIZ029-030-035-036-043>047-240700-
CENTRAL WISCONSIN

CITY           SKY/WX    TMP DP  RH WIND       PRES   REMARKS
WAUSAU         MOCLDY    36  24  62 S5        29.67F WCI  32
6HR MIN TEMP:  28; 6HR MAX TEMP:  36;

MOSINEE        PTCLDY    34  27  75 S9        29.69F WCI  26
MARSHFIELD     CLOUDY    35  23  61 SW10      29.67F WCI  27
6HR MIN TEMP:  29; 6HR MAX TEMP:  38;

STEVENS POINT  CLEAR     33  23  66 S7        29.70F WCI  27
6HR MIN TEMP:  23; 6HR MAX TEMP:  35;

WAUPACA        CLOUDY    38  25  59 S7        29.73F WCI  32
6HR MIN TEMP:  29; 6HR MAX TEMP:  38;

WAUTOMA        MOCLDY    32  22  66 S5        29.74F WCI  27
6HR MIN TEMP:  25; 6HR MAX TEMP:  34;

WISC RAPIDS    CLEAR     36  24  62 S7        29.71F WCI  30
6HR MIN TEMP:  26; 6HR MAX TEMP:  37;

CAMP DOUGLAS   PTCLDY    41  28  59 S7        29.71F
6HR MIN TEMP:  23; 6HR MAX TEMP:  41;

$$

WIZ011>013-019>022-031-037>040-048>050-240700-
NORTHEAST WISCONSIN

CITY           SKY/WX    TMP DP  RH WIND       PRES   REMARKS
ANTIGO         CLOUDY    34  25  69 SW8       29.67F WCI  27
6HR MIN TEMP:  28; 6HR MAX TEMP:  34;

SHAWANO        CLOUDY    38  24  57 SW6       29.71F WCI  34
6HR MIN TEMP:  31; 6HR MAX TEMP:  38;

OCONTO         CLOUDY    35  25  68 SW5       29.72F WCI  31
6HR MIN TEMP:  26; 6HR MAX TEMP:  35;

STURGEON BAY   LGT RAIN  35  23  61 S9        29.73F WCI  28
6HR MIN TEMP:  33; 6HR MAX TEMP:  35;

GREEN BAY      PTCLDY    36  28  73 S8        29.73F WCI  30
6HR MIN TEMP:  31; 6HR MAX TEMP:  36;

MANITOWOC      MOCLDY    33  24  69 S9        29.76F WCI  25
6HR MIN TEMP:  30; 6HR MAX TEMP:  35;

APPLETON       MOCLDY    34  23  64 S9        29.72F WCI  26
CLINTONVILLE   CLOUDY    37  23  56 SW8       29.71F WCI  31
OSHKOSH        CLEAR     35  25  66 S10       29.74F WCI  27
6HR MIN TEMP:  27; 6HR MAX TEMP:  36;

$$

WIZ032>034-041-042-053>061-240700-
SOUTHWEST WISCONSIN

CITY           SKY/WX    TMP DP  RH WIND       PRES   REMARKS
LA CROSSE      CLOUDY    41  28  60 S10       29.70F
6HR MIN TEMP:  33; 6HR MAX TEMP:  41;

SPARTA         CLEAR     41  29  63 SW7       29.71F
6HR MIN TEMP:  26; 6HR MAX TEMP:  41;

VIROQUA        CLOUDY    39  30  71 S10       29.73F WCI  32
6HR MIN TEMP:  35; 6HR MAX TEMP:  39;

BOSCOBEL       CLEAR     27  22  81 CALM      29.78F
6HR MIN TEMP:  26; 6HR MAX TEMP:  33;

PRAIRIE DU CHI CLOUDY    33  26  73 E3        29.77F
6HR MIN TEMP:  30; 6HR MAX TEMP:  36;

PLATTEVILLE    CLEAR     36  29  77 S10       29.80F WCI  28
6HR MIN TEMP:  34; 6HR MAX TEMP:  38;

$$

WIZ056-057-062-063-064-067-068-240700-
SOUTH CENTRAL WISCONSIN

CITY           SKY/WX    TMP DP  RH WIND       PRES   REMARKS
REEDSBURG      CLOUDY    37  27  66 SW8       29.74F WCI  31
6HR MIN TEMP:  31; 6HR MAX TEMP:  37;

BARABOO/DELLS  CLOUDY    37  26  67 SW3       29.74F
6HR MIN TEMP:  31; 6HR MAX TEMP:  37;

LONE ROCK      NOT AVBL
MINERAL POINT  CLOUDY    36  30  80 S8        29.78F WCI  29
MADISON        PTCLDY    34  26  72 S7        29.78F WCI  28
6HR MIN TEMP:  30; 6HR MAX TEMP:  38;

MIDDLETON      PTCLDY    36  27  70 S7        29.78F WCI  31
6HR MIN TEMP:  31; 6HR MAX TEMP:  37;

WATERTOWN      CLEAR     32  27  83 S7        29.79F WCI  26
6HR MIN TEMP:  27; 6HR MAX TEMP:  34;

MONROE         CLEAR     32  27  80 S10       29.80F WCI  24
JANESVILLE     CLEAR     32  27  80 SW7       29.83F WCI  26
$$

WIZ051-052-058>065-066-070>072-240700-
SOUTHEAST WISCONSIN

CITY           SKY/WX    TMP DP  RH WIND       PRES   REMARKS
MILWAUKEE      CLEAR     36  26  67 S8        29.82F WCI  30
6HR MIN TEMP:  33; 6HR MAX TEMP:  39;

WAUKESHA       CLEAR     32  25  74 SW3       29.81F
MILWAUKEE/TIMM CLEAR     32  23  69 S6        29.82F WCI  26
RACINE         CLEAR     35  26  69 SW9       29.85F WCI  28
6HR MIN TEMP:  30; 6HR MAX TEMP:  37;

BURLINGTON     CLEAR     29  28  95 S5        29.82F WCI  24
6HR MIN TEMP:  27; 6HR MAX TEMP:  33;

KENOSHA        CLEAR     33  25  72 SW8       29.84F WCI  26
6HR MIN TEMP:  29; 6HR MAX TEMP:  38;

FOND DU LAC    CLEAR     36  25  64 S12       29.76F WCI  28
6HR MIN TEMP:  27; 6HR MAX TEMP:  36;

SHEBOYGAN      PTCLDY    33  26  75 SW7       29.77F WCI  27
6HR MIN TEMP:  26; 6HR MAX TEMP:  34; 6HR PCP: TRACE;

WEST BEND      PTCLDY    34  27  75 S8        29.78F WCI  27
JUNEAU         CLEAR     33  26  74 S9        29.79F WCI  25
6HR MIN TEMP:  29; 6HR MAX TEMP:  35;

$$

LSZ147-162-240700-
LAKE SUPERIOR

STATION/POSITION TIME  TEMP    WIND        PRES    WAVE
                       AIR SEA DIR/SP/G            HT/PER
                 (UTC) (F)     (DEG/KT/KT) (MB)    (FT/S)
DEVILS ISLAND    0600   40     190/  7/ 10  998.0F
SAXON HARBOR     0540   43     190/  9/ 18  998.0F
$$

LMZ867-665-643>646-240700-
LAKE MICHIGAN

STATION/POSITION TIME  TEMP    WIND        PRES    WAVE
                       AIR SEA DIR/SP/G            HT/PER
                 (UTC) (F)     (DEG/KT/KT) (MB)    (FT/S)
N MID LAKE BUOY  0550



USA.gov is the U.S. government's official web portal to all federal, state and local government web resources and services.